Content
SEND FEEDBACK

Daily
Averages
Monthly
Summary
France

LE HAVRE, FRANCE


Home > Europe > France
Elevation: 338 feet     Latitude: 49 31N     Longitude: 000 04E

WEATHER
 
SELECT A DAY
Number of Records: 176,918;   Date Range: 3/4/97 - 9/15/14
 
SHARE

PRINT THIS DATA

[ ← Previous Day ]
WEATHER ALMANAC - MARCH 17, 2013
[ Next Day → ]
[ °C ]   °F
Weather ElementAverageHighLow
Temperature41.4 °F46.4 °F (10:30 am)39.2 °F (3:30 am)
Dewpoint36.7 °F39.2 °F (10:30 am)33.8 °F (9:30 pm)
Humidity83.3 %87 % (12:30 am)76 % (10:30 am)
Barometer29.30 in29.42 in (12:30 am)29.15 in (2:30 pm)
Wind Speed13.7 mph26.5 mph (5:00 pm)
Wind Gust35.7 mph (3:00 pm)
Weather ElementAverage
Wind DirectionSSW (197 °)

Weather ElementTotal
Precipitation---
Heating Degree Days22.2 (Base 65)
Averaged from 47 records on March 17, 2013
WEATHER CONDITIONS BREAKOUT
WIND DIRECTION BREAKOUT
WEATHER BY HOUR - MARCH 17, 2013
[ °C ]   °F
Local TimeTemperatureDewpointHumidityBarometerVisibilityWind DirectionWind SpeedGust SpeedPrecipitationEventsConditions
12:30 AM41.0 °F37.4 °F87 %29.42 inSouth (190°)11.5 mph
1:00 AM41.0 °F37.4 °F87 %29.42 inSouth (190°)11.5 mph
1:30 AM41.0 °F37.4 °F87 %29.42 inSouth (190°)12.7 mphPartly Cloudy
2:00 AM41.0 °F37.4 °F87 %29.42 inSouth (190°)11.5 mph
2:30 AM41.0 °F37.4 °F87 %29.42 inSouth (190°)11.5 mphScattered Clouds
3:00 AM41.0 °F37.4 °F87 %29.42 inSouth (180°)12.7 mph
3:30 AM39.2 °F35.6 °F87 %29.39 inSouth (180°)10.4 mphMostly Cloudy
4:00 AM41.0 °F35.6 °F81 %29.39 inSouth (170°)11.5 mphMostly Cloudy
4:30 AM39.2 °F35.6 °F87 %29.39 inSouth (180°)11.5 mphMostly Cloudy
5:00 AM39.2 °F35.6 °F87 %29.36 inSouth (180°)10.4 mph
5:30 AM39.2 °F35.6 °F87 %29.36 inSouth (180°)11.5 mph
6:00 AM39.2 °F35.6 °F87 %29.36 inSouth (170°)11.5 mph
6:30 AM39.2 °F35.6 °F87 %29.36 inSouth (180°)11.5 mph
7:00 AM41.0 °F35.6 °F81 %29.36 inSouth (170°)11.5 mphMostly Cloudy
7:30 AM39.2 °F35.6 °F87 %29.33 inSouth (170°)11.5 mphMostly Cloudy
8:00 AM39.2 °F35.6 °F87 %29.33 inSSE (160°)11.5 mphPartly Cloudy
8:30 AM41.0 °F37.4 °F87 %29.33 inSouth (170°)12.7 mphPartly Cloudy
9:00 AM41.0 °F35.6 °F81 %29.33 inSouth (170°)13.8 mphPartly Cloudy
9:30 AM42.8 °F37.4 °F81 %29.30 inSouth (170°)15.0 mphMostly Cloudy
10:00 AM42.8 °F37.4 °F81 %29.30 inSouth (170°)13.8 mphMostly Cloudy
10:30 AM46.4 °F39.2 °F76 %29.30 inSouth (170°)12.7 mphScattered Clouds
11:00 AM44.6 °F37.4 °F76 %29.27 inSouth (190°)11.5 mphMostly Cloudy
11:30 AM41.0 °F37.4 °F87 %29.27 inSSW (210°)12.7 mphRainLight Rain Showers
12:00 PM41.0 °F37.4 °F87 %29.27 inSouth (180°)15.0 mphRainLight Rain
12:30 PM42.8 °F37.4 °F81 %29.24 inSSE (150°)11.5 mphMostly Cloudy
1:00 PM44.6 °F39.2 °F81 %29.24 inSSE (150°)13.8 mph
1:30 PM44.6 °F39.2 °F81 %29.21 inSSE (150°)11.5 mphMostly Cloudy
2:00 PM44.6 °F39.2 °F81 %29.18 inSSE (160°)10.4 mphRainLight Rain
2:30 PM46.4 °F39.2 °F76 %29.15 inSouth (170°)8.1 mphRainLight Rain
3:00 PM41.0 °F37.4 °F87 %29.18 inSW (220°)18.4 mph35.7 mphRainLight Rain
3:30 PM42.8 °F39.2 °F87 %29.18 inSW (230°)13.8 mphMostly Cloudy
4:00 PM44.6 °F39.2 °F81 %29.18 inSW (220°)15.0 mphMostly Cloudy
4:30 PM41.0 °F37.4 °F87 %29.18 inWSW (240°)19.6 mphRainLight Rain
5:00 PM41.0 °F37.4 °F87 %29.21 inWSW (250°)26.5 mphOvercast
5:30 PM41.0 °F37.4 °F87 %29.21 inWest (260°)25.3 mphOvercast
6:00 PM41.0 °F35.6 °F81 %29.24 inWest (260°)25.3 mphOvercast
6:30 PM41.0 °F35.6 °F81 %29.24 inWest (270°)21.9 mphOvercast
7:00 PM41.0 °F35.6 °F81 %29.27 inWest (260°)19.6 mphOvercast
7:30 PM41.0 °F35.6 °F81 %29.27 inWSW (250°)16.1 mphMostly Cloudy
8:00 PM41.0 °F35.6 °F81 %29.27 inWSW (240°)17.3 mphMostly Cloudy
8:30 PM39.2 °F35.6 °F87 %29.30 inWSW (240°)12.7 mph
9:00 PM41.0 °F35.6 °F81 %29.27 inSW (220°)10.4 mph
9:30 PM41.0 °F33.8 °F76 %29.30 inSSW (210°)11.5 mph
10:00 PM41.0 °F35.6 °F81 %29.30 inSSW (210°)12.7 mphMostly Cloudy
10:30 PM41.0 °F35.6 °F81 %29.30 inSSW (210°)11.5 mphMostly Cloudy
11:00 PM41.0 °F33.8 °F76 %29.30 inSSW (200°)9.2 mphOvercast
11:30 PM41.0 °F33.8 °F76 %29.30 inSouth (190°)9.2 mphOvercast
Hourly data recorded from LFOH, located miles away from Le Havre, France







STORIES FROM OUR PARTNERS